Location: Newark
(39.1833°N, 3.3000°W)
Time: 02:32:31
(UTC+00:00)

Tiangong 2 - Pass Details

Date: 21 March 2019
Orbit: 378 x 389 km, 42.8° (Epoch: 20 April)

Event Time Altitude Azimuth Distance (km) Brightness Sun altitude
Exits shadow 05:40:13 - 282° (WNW) 1,438 3.4 -7.7°
Reaches altitude 10° 05:40:19 10° 281° (W) 1,400 3.3 -7.7°
Maximum altitude 05:43:21 45° 207° (SSW) 529 1.5 -7.1°
Drops below altitude 10° 05:46:24 10° 133° (SE) 1,401 4.6 -6.5°
Sets 05:48:31 0° 127° (SE) 2,255 5.8 -6.1°
